Wind_Speed
40 40 40 40 39 39 40 40 41 40 39 39 39 40 40 40 41 42 42 43 43 43 43 44 45 46 46 46 46 45 45 45 45 44 44 44 44 44 43 43 44 44 44 44
40 40 41 41 39 39 40 40 41 41 40 39 40 40 41 41 42 42 43 43 43 42 43 43 44 45 45 45 44 45 45 44 43 43 43 43 43 43 42 42 42 42 42 42
41 41 42 41 39 39 39 39 40 40 40 40 40 41 41 42 42 42 42 42 42 42 43 43 43 44 44 43 44 44 44 43 42 42 42 42 42 42 42 41 41 41 41 41
42 42 43 41 39 39 39 39 39 39 39 40 40 40 40 41 40 41 40 40 40 41 41 42 42 43 43 43 44 43 42 41 41 41 41 41 41 40 40 40 40 40 40 40
42 42 42 40 39 39 40 40 38 39 39 39 39 39 39 39 39 39 39 39 40 41 41 42 42 42 42 42 42 41 41 41 40 41 41 40 39 39 38 38 37 38 38 38
41 41 42 40 40 40 40 40 39 39 39 39 38 38 38 38 39 39 39 40 41 41 42 42 42 42 41 41 41 40 39 39 39 39 39 38 38 37 37 37 36 37 37 37
39 41 41 40 39 38 39 39 39 38 38 37 38 38 38 38 38 40 40 41 41 42 42 42 41 41 40 40 39 39 38 38 38 38 38 37 37 37 37 36 36 36 37 36
38 39 39 38 38 38 38 39 39 38 38 38 38 38 38 38 39 39 39 40 40 41 41 41 41 40 40 39 38 38 37 38 37 37 37 36 36 36 36 36 35 36 35 35
37 37 37 37 38 38 38 38 38 38 38 38 38 38 38 38 38 38 39 39 39 39 40 40 40 39 39 38 37 37 37 37 37 36 36 35 35 35 35 34 34 35 35 35
36 36 36 36 37 37 37 37 37 36 37 38 38 38 38 38 38 38 38 39 39 39 39 39 39 38 38 37 37 36 36 36 35 35 35 35 35 34 34 34 34 34 34 34
36 37 37 36 37 37 36 36 36 36 37 38 39 39 38 38 38 38 39 39 39 39 39 38 37 36 36 36 36 35 35 34 34 34 33 33 33 33 33 33 33 33 33 32
35 35 36 35 36 35 35 36 36 37 37 38 39 39 39 39 38 38 39 39 39 38 37 36 36 35 34 34 34 34 33 33 31 31 31 31 31 31 32 33 33 32 32 31
35 34 35 35 35 36 36 36 37 37 38 38 39 39 39 39 39 39 39 38 38 37 36 35 35 34 34 33 33 33 32 31 31 30 30 30 29 29 29 31 32 32 31 30
34 34 34 35 35 36 36 36 37 37 38 38 39 39 39 39 39 39 38 37 36 36 35 34 34 33 33 32 32 31 30 30 30 30 30 29 29 29 29 29 29 30 29 29
33 34 34 34 35 35 36 36 37 38 38 38 38 39 39 38 37 37 36 35 35 35 34 33 33 32 32 32 31 30 30 30 30 29 28 28 28 29 29 28 28 28 27 27
33 34 34 34 35 35 35 36 36 37 37 37 37 37 37 37 36 35 34 34 33 33 32 32 32 32 31 30 30 29 29 29 29 28 27 27 27 27 27 27 27 27 26 26
32 33 33 33 34 34 34 35 35 36 36 36 35 35 35 35 34 33 33 32 32 31 31 31 31 31 30 29 29 28 28 28 28 27 27 27 27 26 26 26 26 25 25 25
32 32 33 33 33 34 34 34 34 34 34 33 33 33 33 32 32 31 31 31 31 30 30 30 30 29 29 29 29 28 28 27 27 26 26 26 26 26 25 25 25 24 24 24
31 31 32 32 32 32 31 32 32 32 32 31 31 31 32 31 31 31 30 30 30 30 29 29 29 29 29 29 28 28 27 27 26 26 25 26 26 26 25 25 25 24 24 23
29 29 30 30 30 30 30 31 31 31 31 30 30 30 30 30 30 30 30 29 29 29 29 29 29 29 29 29 28 27 26 26 26 25 25 26 26 26 25 25 24 23 22 22
29 29 29 29 29 29 30 30 30 30 30 30 30 30 30 30 29 29 29 29 28 28 28 29 29 28 28 28 27 26 25 25 25 25 25 25 26 26 25 24 24 23 22 21
28 28 28 28 28 28 29 29 29 29 30 30 30 30 30 30 29 29 28 28 28 28 28 28 28 27 27 26 25 25 25 25 25 26 25 25 25 25 25 24 23 23 22 21
27 27 27 27 27 27 28 28 28 28 29 29 29 29 29 29 29 28 28 28 27 27 27 27 26 26 26 25 25 25 26 26 26 26 25 25 25 25 24 23 23 22 22 21
27 27 27 27 27 27 27 27 28 28 28 28 29 29 29 29 28 28 27 26 26 26 26 26 26 26 26 25 25 25 25 25 25 25 25 25 24 24 24 23 23 23 22 20
27 26 27 27 27 27 27 27 27 27 27 28 28 28 27 27 26 26 26 25 25 25 25 25 25 24 24 24 24 24 24 24 24 24 23 24 24 23 23 22 22 21 20 20
26 26 26 26 26 26 26 26 26 26 26 27 26 26 26 25 25 25 24 24 25 25 24 24 23 23 23 23 23 23 23 23 23 23 23 23 23 22 22 22 21 21 20 20
25 25 25 25 25 25 25 25 26 26 26 25 25 25 24 24 24 24 24 24 24 24 24 23 23 23 23 23 23 23 23 23 22 22 22 22 22 22 22 22 21 21 20 20
Wind_Direction
288 289 289 289 289 289 288 288 289 291 290 292 292 293 294 293 293 293 294 294 294 294 294 294 294 295 294 295 295 295 294 292 291 289 288 287 286 285 284 283 282 281 279 278
288 290 290 289 289 289 289 289 289 289 290 292 293 293 294 294 294 294 294 295 295 296 295 296 296 296 296 296 296 296 295 293 291 289 289 288 286 285 285 284 283 282 280 279
289 289 289 290 292 291 290 289 290 290 291 291 292 293 293 293 295 295 295 296 296 296 297 297 297 297 297 297 297 297 296 293 291 290 290 289 287 286 285 284 283 282 281 280
288 287 287 291 291 291 291 291 291 291 291 291 292 292 293 294 295 296 296 296 296 297 298 299 299 300 299 299 299 298 297 294 291 290 290 289 288 287 287 285 284 283 282 281
287 288 288 290 291 292 291 291 291 291 291 292 292 293 293 295 294 295 296 297 299 299 299 300 300 301 300 300 300 298 297 295 292 291 290 290 289 288 288 287 286 285 283 282
287 288 289 291 291 292 292 292 292 292 291 292 292 292 294 294 294 295 297 298 300 300 300 301 301 302 302 301 301 299 297 296 294 293 291 290 289 289 288 287 286 286 285 284
288 288 289 292 293 293 292 293 293 292 292 292 292 293 293 294 296 297 297 299 300 300 301 302 302 302 302 301 301 300 298 297 296 294 292 290 290 290 288 287 286 286 285 284
288 288 289 290 291 290 291 291 291 291 292 292 293 294 294 295 297 298 299 300 301 302 302 302 302 303 302 302 302 301 300 299 298 295 293 292 292 291 290 288 287 286 285 283
286 287 289 289 289 290 290 290 291 291 291 292 293 294 295 296 298 299 300 302 303 304 304 304 303 302 303 303 303 302 301 300 299 297 295 294 293 292 291 290 288 286 284 283
286 286 286 287 288 288 289 289 290 290 291 292 293 294 295 297 298 299 301 302 304 304 305 305 305 304 303 303 303 303 303 302 300 298 296 295 294 293 292 290 289 287 284 283
285 286 285 286 287 288 288 288 288 289 291 292 293 294 295 296 298 299 301 302 303 304 305 305 305 305 305 304 304 304 304 303 301 300 298 297 296 295 293 291 290 288 286 284
286 287 287 288 288 288 287 288 289 290 292 293 293 293 294 295 297 298 300 301 302 304 304 304 306 306 307 307 306 305 305 304 303 301 300 299 298 296 295 294 293 291 288 285
285 287 287 288 288 287 286 288 289 291 292 293 293 294 294 295 296 297 299 300 301 303 304 304 305 306 306 307 308 307 305 304 303 303 302 300 299 298 297 296 296 295 292 287
286 287 287 288 288 287 287 288 289 291 293 294 293 294 294 294 295 297 298 299 300 302 304 305 305 305 306 306 307 307 306 305 305 304 304 302 301 301 299 297 295 294 292 289
286 287 288 288 289 289 290 290 290 292 293 294 294 294 295 295 295 296 297 298 299 301 303 303 304 305 305 306 307 307 306 306 306 306 306 304 303 303 302 301 298 294 291 290
287 288 289 289 290 291 292 293 293 293 293 294 294 295 295 295 295 295 296 297 300 301 302 303 303 305 306 306 306 307 307 307 308 308 308 307 307 306 306 305 302 298 294 292
288 288 289 290 291 292 293 294 295 295 295 295 296 296 296 296 296 296 296 298 300 301 302 302 303 305 306 307 307 307 306 307 308 309 309 309 309 309 309 309 307 303 299 295
290 291 291 292 292 292 293 294 295 297 297 297 297 297 297 298 297 297 297 298 300 301 302 303 304 305 307 308 307 306 305 306 308 307 307 309 310 309 310 310 310 307 303 299
292 293 293 294 295 295 296 296 297 298 298 298 297 297 298 298 298 298 298 299 300 301 302 302 303 305 307 308 307 306 306 307 307 306 306 308 310 311 311 311 310 308 307 304
295 296 296 296 296 296 296 296 297 298 298 299 299 300 300 300 299 299 300 300 301 302 303 303 304 304 305 306 306 305 306 307 307 307 307 308 310 311 311 311 310 310 308 305
295 296 296 296 297 297 297 297 297 298 299 299 299 300 301 302 301 300 300 301 302 303 304 304 304 304 304 305 304 304 305 306 307 307 307 307 308 310 311 311 310 309 309 307
295 296 296 297 298 298 299 299 298 299 300 300 300 301 302 302 302 302 302 303 303 304 305 305 305 304 304 304 303 304 304 305 306 306 307 307 307 308 310 310 309 308 308 307
295 296 297 298 300 300 301 301 300 300 301 300 301 301 302 303 302 302 302 303 303 305 306 306 306 306 305 304 303 303 303 303 304 304 305 306 306 307 307 308 308 306 305 305
294 295 297 299 301 302 302 302 302 302 302 302 301 302 303 303 303 302 301 301 303 304 306 307 307 307 306 305 304 304 304 304 303 303 303 305 306 306 306 306 306 306 305 304
294 295 297 299 301 302 302 303 304 304 304 304 304 305 305 305 305 304 303 302 302 303 305 306 308 308 307 307 306 306 306 305 304 303 304 304 305 306 307 305 306 306 306 305
294 296 298 300 301 303 304 304 305 305 306 307 307 307 308 308 308 307 306 305 304 304 305 306 307 308 309 309 309 308 307 307 305 305 305 305 305 306 307 307 306 306 305 305
296 296 298 300 302 304 304 305 306 306 307 308 308 308 309 309 309 309 309 308 307 307 306 306 306 306 308 310 311 310 309 308 307 306 307 307 307 306 306 306 307 306 305 304
Height
5620 5617 5615 5612 5611 5608 5605 5602 5600 5599 5596 5594 5589 5586 5583 5580 5576 5573 5570 5566 5562 5558 5554 5550 5545 5541 5536 5532 5527 5522 5517 5513 5510 5506 5503 5499 5496 5494 5491 5488 5486 5484 5482 5481
5610 5607 5604 5602 5601 5598 5595 5592 5589 5587 5586 5583 5579 5576 5572 5568 5565 5562 5559 5555 5551 5547 5543 5538 5534 5529 5524 5519 5514 5509 5505 5501 5497 5494 5490 5487 5484 5482 5479 5476 5474 5471 5470 5468
5598 5596 5592 5591 5592 5588 5585 5582 5579 5576 5576 5572 5569 5565 5561 5558 5555 5551 5547 5544 5540 5536 5531 5527 5522 5517 5512 5507 5502 5497 5493 5488 5485 5482 5479 5476 5473 5470 5467 5464 5462 5459 5458 5456
5586 5585 5582 5585 5580 5577 5574 5572 5569 5566 5563 5560 5557 5554 5551 5548 5544 5540 5537 5533 5529 5525 5520 5515 5511 5506 5501 5496 5491 5486 5481 5477 5473 5470 5467 5464 5461 5458 5455 5453 5450 5448 5446 5444
5575 5572 5571 5573 5570 5566 5563 5562 5559 5555 5553 5550 5547 5544 5541 5537 5534 5530 5526 5522 5518 5514 5509 5505 5500 5495 5490 5485 5480 5475 5470 5466 5462 5459 5456 5453 5450 5447 5444 5441 5439 5437 5435 5433
5564 5561 5561 5563 5559 5555 5553 5551 5549 5545 5542 5539 5536 5534 5532 5528 5524 5520 5516 5512 5508 5503 5498 5494 5489 5484 5479 5474 5469 5464 5460 5456 5452 5448 5445 5442 5439 5436 5433 5431 5428 5426 5424 5421
5554 5550 5550 5551 5548 5545 5544 5542 5538 5534 5531 5529 5526 5524 5521 5517 5514 5510 5506 5502 5497 5493 5488 5483 5478 5473 5468 5463 5458 5454 5450 5445 5441 5437 5434 5431 5428 5425 5422 5420 5418 5415 5413 5411
5544 5541 5543 5540 5537 5536 5533 5530 5527 5524 5521 5519 5516 5513 5510 5507 5503 5500 5496 5492 5487 5482 5477 5472 5467 5463 5458 5453 5448 5444 5439 5435 5431 5427 5424 5420 5418 5415 5412 5409 5407 5404 5402 5400
5535 5535 5532 5529 5526 5524 5522 5519 5517 5514 5512 5509 5506 5503 5500 5497 5493 5489 5485 5481 5477 5472 5467 5462 5457 5452 5447 5443 5438 5433 5429 5425 5421 5417 5413 5410 5407 5404 5401 5398 5396 5394 5391 5390
5524 5523 5522 5519 5516 5514 5512 5509 5507 5504 5501 5499 5496 5493 5490 5487 5483 5479 5475 5471 5466 5462 5457 5452 5447 5442 5437 5432 5428 5423 5419 5415 5411 5407 5404 5400 5397 5394 5391 5388 5385 5383 5381 5379
5514 5513 5511 5509 5507 5504 5502 5499 5496 5494 5491 5488 5486 5483 5479 5476 5473 5469 5465 5461 5456 5452 5447 5442 5437 5432 5427 5422 5418 5414 5409 5405 5401 5398 5394 5391 5387 5384 5381 5378 5375 5373 5371 5369
5504 5503 5501 5499 5496 5494 5491 5489 5486 5484 5481 5478 5475 5472 5469 5466 5462 5458 5454 5450 5446 5441 5437 5432 5427 5423 5418 5413 5409 5405 5400 5396 5393 5389 5385 5382 5378 5375 5371 5368 5365 5362 5360 5358
5494 5492 5490 5488 5486 5483 5481 5478 5476 5473 5471 5468 5465 5461 5458 5455 5451 5448 5444 5440 5435 5431 5427 5423 5418 5414 5409 5405 5400 5396 5392 5388 5384 5381 5377 5373 5370 5367 5363 5360 5356 5353 5351 5349
5484 5482 5480 5478 5476 5473 5471 5468 5466 5463 5460 5457 5454 5450 5447 5444 5440 5437 5433 5429 5425 5421 5417 5413 5409 5405 5400 5396 5392 5388 5384 5380 5376 5373 5369 5365 5362 5358 5355 5352 5349 5345 5342 5339
5475 5473 5471 5468 5466 5463 5460 5458 5455 5453 5449 5446 5443 5439 5436 5433 5429 5426 5422 5419 5415 5412 5408 5404 5400 5396 5392 5388 5384 5380 5376 5373 5369 5365 5361 5358 5354 5351 5347 5344 5340 5337 5334 5332
5466 5463 5461 5459 5456 5453 5451 5448 5445 5442 5439 5436 5432 5429 5426 5422 5419 5416 5412 5409 5406 5402 5398 5395 5391 5387 5383 5380 5376 5372 5368 5365 5361 5358 5354 5350 5347 5343 5340 5336 5332 5329 5326 5324
5457 5454 5452 5449 5447 5444 5441 5438 5435 5432 5429 5425 5422 5419 5416 5412 5409 5406 5403 5400 5396 5393 5390 5386 5383 5379 5375 5372 5368 5365 5361 5357 5354 5351 5347 5344 5340 5336 5333 5329 5325 5322 5319 5316
5447 5445 5442 5440 5437 5435 5432 5429 5425 5422 5419 5416 5413 5410 5406 5403 5400 5397 5394 5391 5388 5384 5381 5378 5374 5371 5367 5364 5360 5357 5354 5350 5347 5344 5341 5337 5334 5330 5326 5322 5319 5316 5313 5310
5439 5436 5433 5431 5428 5425 5422 5419 5416 5413 5410 5407 5404 5401 5398 5394 5391 5388 5385 5382 5379 5376 5373 5369 5366 5363 5360 5356 5353 5350 5346 5343 5340 5337 5334 5331 5327 5324 5320 5316 5313 5310 5307 5304
5431 5428 5425 5423 5420 5417 5414 5411 5408 5405 5402 5399 5395 5392 5389 5386 5383 5380 5377 5374 5371 5368 5364 5361 5358 5355 5352 5348 5345 5342 5339 5336 5333 5330 5327 5324 5321 5318 5314 5311 5307 5304 5301 5298
5423 5420 5418 5415 5412 5409 5406 5403 5400 5397 5393 5390 5387 5384 5381 5378 5374 5371 5368 5366 5363 5359 5356 5353 5350 5347 5344 5341 5338 5335 5332 5329 5327 5324 5321 5318 5315 5311 5308 5305 5301 5299 5296 5293
5415 5412 5410 5407 5404 5401 5398 5394 5391 5388 5385 5382 5379 5376 5373 5370 5366 5363 5360 5358 5355 5351 5348 5345 5342 5339 5336 5333 5330 5328 5325 5322 5320 5317 5314 5311 5308 5305 5302 5299 5296 5293 5290 5288
5407 5404 5402 5399 5396 5393 5390 5386 5383 5380 5377 5374 5371 5368 5365 5362 5359 5356 5353 5350 5346 5343 5340 5337 5334 5331 5328 5325 5323 5320 5318 5315 5312 5310 5307 5304 5301 5299 5296 5293 5290 5287 5285 5282
5399 5397 5394 5391 5388 5385 5382 5379 5376 5373 5370 5366 5363 5360 5357 5354 5350 5347 5344 5341 5338 5336 5333 5329 5326 5323 5321 5318 5315 5313 5310 5308 5305 5302 5300 5297 5295 5292 5289 5286 5284 5281 5279 5276
5392 5389 5386 5384 5381 5378 5375 5372 5368 5365 5362 5359 5356 5352 5349 5346 5342 5339 5336 5333 5331 5328 5325 5322 5319 5316 5313 5311 5308 5306 5303 5300 5298 5295 5293 5290 5288 5285 5283 5280 5277 5275 5273 5270
5384 5381 5379 5376 5373 5370 5367 5364 5361 5358 5355 5352 5348 5345 5342 5338 5335 5332 5329 5326 5323 5321 5318 5315 5312 5310 5307 5304 5301 5299 5296 5293 5291 5288 5286 5284 5281 5279 5276 5274 5271 5269 5267 5264
5376 5374 5371 5369 5366 5363 5360 5357 5354 5351 5348 5345 5342 5338 5335 5332 5329 5325 5322 5319 5316 5314 5311 5308 5306 5303 5300 5298 5295 5292 5289 5287 5284 5282 5280 5277 5275 5273 5270 5268 5265 5263 5261 5259